Showing default

IRIDIUM 115, 42806

Orbit data source: Space-Track

IRIDIUM 115, 42806 is a payload satellite owned by Iridium (US) in LEO that was launched on Sun, 25 Jun 2017 UTC via an FALCON 9 launch vehicle from the Air Force Western Test Range (AFWTR). Payload-class satellites include a variety of spacecraft equipped with specific instruments for various scientific and technological missions. These include communications satellites like Starlink; space stations such as the ISS; scientific satellites like the Hubble; Earth observation satellites from companies like Planet Labs, Umbra, and HawkEye 360; GPS; miniature CubeSats for education and research; and military/defense satellites.

Loading next visibility...
Identifier
42806, 2017-039D
Orbit
LEO
Country
Flag of USUS
Related business
Manufacturer
OATK SSG Gilbert
Mission
Operational Commercial Communications
Bus & Motor
ELITEBUS, Unknown motor
Mass
860 kg wet, 700 kg dry
Launch date (UTC)
2017-06-25 (9 years ago)
Launch vehicle
FALCON 9
Launch site
Air Force Western Test Range (AFWTR)
Object type
Payload
Rocket body
Debris
Shape & HBR
Trap Box + 2 Pan, 4.8 m
Radar Cross Section
10.154 m², Large (>1 m²)

Expand to show TLE details & history
Last TLE update: 6 hours ago

TLE from 6 hours ago
0 IRIDIUM 115
1 42806U 17039D   26128.11467744  .00000262  00000-0  72012-4 0  9999
2 42806  86.4503 338.8473 0002372  83.9189 276.2282 14.43278522468483
Epoch: 2026-05-08T02:45Z
TLE epoch observation values (Epoch: 2026-05-08T02:45:08.130Z)
Latitude
-0.00006°
Longitude
71.61232°
Altitude
750.568 km
Speed
7.479 km/s
True Right ascension
22h 35m 23s
True Declination
0° 00' 00"
Sunlit
Object was in daylight at epoch
Visualization orbit readout
Latitude
Unknown
Longitude
Unknown
Altitude
Unknown
Speed
Unknown
Apparent Right ascension
Unknown
Apparent Declination
Unknown
Sunlit
N/A
Visualization observer readout
Local Sidereal Time
16:42:07
Azimuth
Unknown
Elevation
Unknown
Doppler factor
Unknown
Orbital elements
Apogee altitude
746.327 km
Perigee altitude
742.948 km
Semi-major axis
7,122.774 km
Eccentricity
0.00024
Inclination
86.4503°
RAAN
338.8473°
Arg. of periapsis
83.9189°
True anomaly
276.20118°
Mean anomaly
276.2282°
Eccentric anomaly
276.21469°
Mean motion
3.61052 °/min
Orbital period
99.71 mins
BSTAR
0.000072012
Loading maneuver chart data...
Computing Atmospheric mass density...
Loading historical data...
Loading historical data...
Loading historical data...
Loading historical data...
Loading historical data...
Loading historical data...
Loading historical data...

Documentation

Showing up to 5 results
|